Hourly Data Report for October 27, 2016

All times are specified in Local Standard Time (LST). Add 1 hour to adjust for Daylight Saving Time where and when it is observed.

CORAL HARBOUR A
NUNAVUT

64°11'36.000" N
83°21'34.000" W
62.20 m
2301002
71915
YZS

Download Data

Hourly Data (October 2016)
Hourly Data Report for October 27, 2016
Temp Definition
°C
Dew Point Temp Definition
°C
Rel Hum Definition
%
Wind Dir Definition
10's deg

Wind Spd Definition
km/h
Visibility Definition
km
Stn Press Definition
kPa
Hmdx Definition


Wind Chill Definition


Weather Definition


TIME
00:00 Legend Double Dagger -3.9 -5.5 89 27 28 24.1 100.61   -11 Snow
01:00 Legend Double Dagger -5.3 -7.1 87 29 34 24.1 100.59   -14 Snow
02:00 Legend Double Dagger -5.8 -7.9 85 33 26 24.1 100.65   -14 Snow
03:00 Legend Double Dagger -5.8 -7.8 86 31 19 24.1 100.65   -12 Snow
04:00 Legend Double Dagger -6.1 -8.1 86 33 14 24.1 100.63   -12 Snow
05:00 Legend Double Dagger -7.1 -8.8 88 28 18 24.1 100.60   -14 Snow
06:00 Legend Double Dagger -7.0 -8.4 90 27 20 24.1 100.57   -14 Snow
07:00 Legend Double Dagger -6.9 -8.3 90 28 20 24.1 100.59   -14 Snow
08:00 Legend Double Dagger -6.6 -8.1 89 29 18 24.1 100.59   -13 Snow
09:00 Legend Double Dagger -6.9 -8.4 89 29 17 24.1 100.57   -13 Snow
10:00 Legend Double Dagger -6.7 -8.4 88 30 15 24.1 100.56   -13 Snow
11:00 Legend Double Dagger -6.5 -8.3 87 33 16 24.1 100.56   -13 Snow
12:00 Legend Double Dagger -7.0 -9.0 86 34 14 4.8 100.55   -13 Snow
13:00 Legend Double Dagger -7.1 -9.2 85 35 16 4.8 100.55   -13 Snow
14:00 Legend Double Dagger -7.8 -10.1 84 1 15 3.2 100.55   -14 Snow
15:00 Legend Double Dagger -8.3 -10.4 85 35 11 4.0 100.56   -14 Snow
16:00 Legend Double Dagger -10.8 -13.6 80 34 17 19.3 100.58   -18 Snow
17:00 Legend Double Dagger -13.7 -16.3 81 35 19 24.1 100.61   -22 LegendNANA
18:00 Legend Double Dagger -15.5 -18.4 79 36 30 24.1 100.61   -27 LegendNANA
19:00 Legend Double Dagger -18.8 -21.4 80 34 30 24.1 100.59   -31 Mainly Clear
20:00 Legend Double Dagger -17.8 -20.5 80 35 26 24.1 100.58   -29 LegendNANA
21:00 Legend Double Dagger -18.8 -21.4 80 36 27 24.1 100.57   -30 LegendNANA
22:00 Legend Double Dagger -19.2 -21.8 80 35 28 24.1 100.54   -31 Mainly Clear
23:00 Legend Double Dagger -18.6 -21.7 77 36 24 24.1 100.54   -30 LegendNANA

Notes on Data Quality.

Legend

  • E = Estimated
  • M = Missing
  • NA = Not Available
  • ‡ = Partner data that is not subject to review by the National Climate Archives
Date modified: